This is the latest recevied weather packets stored in our database for station/object K1KOF. If no packets are shown the sender has not sent any weather packets the latest 10 day(s).
| Time | Temp. | Humidity | Pressure | Rain* | Wind** | Luminosity | Snow |
|---|---|---|---|---|---|---|---|
| 1778193973 | 24.44° C | 73% | 1019.4 hPa | 0 mm | - | 54 W/m² | - |
| 1778193670 | 25° C | 72% | 1019.5 hPa | 0 mm | - | 144 W/m² | - |
| 1778193366 | 25° C | 73% | 1019.3 hPa | 0 mm | - | 105 W/m² | - |
| 1778193063 | 25° C | 72% | 1019.2 hPa | 0 mm | - | 89 W/m² | - |
| 1778192760 | 25° C | 72% | 1019.1 hPa | 0 mm | - | 84 W/m² | - |
| 1778192456 | 25° C | 74% | 1019.1 hPa | 0 mm | - | 57 W/m² | - |
| 1778192152 | 25° C | 73% | 1018.8 hPa | 0 mm | - | 57 W/m² | - |
| 1778191850 | 25.56° C | 73% | 1018.9 hPa | 0 mm | - | 76 W/m² | - |
| 1778191547 | 25.56° C | 72% | 1018.7 hPa | 0 mm | - | 232 W/m² | - |
| 1778191244 | 25.56° C | 72% | 1018.8 hPa | 0 mm | - | 280 W/m² | - |
| 1778190940 | 25.56° C | 73% | 1018.8 hPa | 0 mm | - | 297 W/m² | - |
| 1778190638 | 25° C | 74% | 1018.9 hPa | 0 mm | - | 321 W/m² | - |
| 1778190335 | 25.56° C | 74% | 1018.8 hPa | 0 mm | - | 384 W/m² | - |
| 1778190031 | 25° C | 75% | 1019 hPa | 0 mm | - | 91 W/m² | - |
| 1778189728 | 25.56° C | 74% | 1018.7 hPa | 0 mm | - | 94 W/m² | - |
| 1778189425 | 25.56° C | 75% | 1018.8 hPa | 0 mm | - | 466 W/m² | - |
| 1778189121 | 25° C | 77% | 1018.6 hPa | 0 mm | - | 176 W/m² | - |
| 1778188817 | 25.56° C | 75% | 1018.5 hPa | 0 mm | - | 175 W/m² | - |
| 1778188514 | 25.56° C | 77% | 1018.8 hPa | 0 mm | - | 350 W/m² | - |
| 1778188210 | 26.67° C | 74% | 1018.7 hPa | 0 mm | - | 537 W/m² | - |
| 1778187908 | 26.67° C | 73% | 1018.5 hPa | 0 mm | - | 510 W/m² | - |
| 1778187604 | 26.67° C | 73% | 1018.8 hPa | 0 mm | - | 532 W/m² | - |
| 1778187301 | 26.67° C | 74% | 1018.6 hPa | 0 mm | - | 440 W/m² | - |
| 1778186997 | 26.11° C | 74% | 1018.6 hPa | 0 mm | - | 369 W/m² | - |
| 1778186694 | 26.11° C | 75% | 1018.9 hPa | 0 mm | - | 558 W/m² | - |
* Rain latest hour (hover to see other rain measurements)
** Current wind speed in m/s (hover to see current wind gust speed)